Regional Weather Roundup
Issued by NWS

Home | Current Version | Previous Version | Text Only | Print | Product List | Glossary Off
Versions: 1 2 3 4 5 6 7 8 9 10 11 12 13 14 15 16 17 18 19 20 21 22 23 24 25 26 27 28 29 30 31 32 33 34 35 36 37 38 39 40 41 42 43 44 45 46 47 48 49 50

000
ASUS45 KCYS 240410
RWRWY

WYOMING REGIONAL WEATHER ROUNDUP
NATIONAL WEATHER SERVICE CHEYENNE WY
900 PM MST FRI JAN 23 2015

NOTE:  "FAIR" INDICATES FEW OR NO CLOUDS BELOW 12,000 FEET
WITH NO SIGNIFICANT WEATHER AND/OR OBSTRUCTIONS TO VISIBILITY.

WYZ001-240500-
YELLOWSTONE NATIONAL PARK

CITY           SKY/WX    TMP DP  RH WIND       PRES   REMARKS
LK YELLOWSTONE   N/A      4   0  83 NW3       30.41S
W YELLOWSTONE  NOT AVBL

$$
WYZ002>013-054>058-071-098>099-240500-
NORTHERN WYOMING

CITY           SKY/WX    TMP DP  RH WIND       PRES   REMARKS
JACKSON        FAIR       3   1  92 N10       30.45R WCI -12
CODY           FAIR      25  19  80 S6        30.22F WCI  18
GREYBULL       FAIR      15  11  83 CALM      30.28S
WORLAND        FAIR      11  10  96 CALM      30.26S
SHERIDAN       FAIR      26  20  77 S6        30.15F WCI  19
BUFFALO        FAIR      31  21  66 NW3       30.18S
GILLETTE       FAIR      33  25  72 SW14      30.15F WCI  23
HULETT           N/A    N/A N/A N/A MISG        N/A
NEWCASTLE      FAIR      30  23  74 N7        30.19S WCI  23

$$
WYZ014>020-022>026-101>103-240500-
CENTRAL WYOMING

CITY           SKY/WX    TMP DP  RH WIND       PRES   REMARKS
BIG PINEY      FAIR      18  11  74 CALM      30.37R
PINEDALE       MOCLDY     5   3  92 NW5       30.37S WCI  -4
DUBOIS         FAIR      32  12  43 NW20      30.28S WCI  20
LANDER         FAIR      22  19  89 CALM      30.27F
RIVERTON       FAIR      18  14  84 CALM      30.28F
CASPER         FAIR      30  20  66 SW16      30.25S WCI  19
DOUGLAS        FAIR      27  23  85 NW6       30.23F WCI  20

$$
WYZ021-027>030-104>119-240500-
SOUTHERN WYOMING

CITY           SKY/WX    TMP DP  RH WIND       PRES   REMARKS
EVANSTON       FAIR      22  17  81 CALM      30.42S
FORT BRIDGER   FAIR      24  22  89 W15       30.42S WCI  12
ROCK SPRINGS   FAIR      25  18  74 SW16      30.38R WCI  12
DIXON          FAIR      18  13  79 NE3       30.41S
RAWLINS        FAIR      24  15  68 W8G17     30.34S WCI  15
SARATOGA       CLOUDY    25  16  68 S8        30.35S WCI  16
LARAMIE        CLOUDY    21  14  74 NE8       30.28S WCI  11
CHEYENNE       FAIR      31  17  56 NW12      30.24S WCI  22
TORRINGTON     FAIR      31  24  75 W7        30.20F WCI  24
PINE BLUFFS    FAIR      28  19  69 NW6       30.25R WCI  22

$$



USA.gov is the U.S. government's official web portal to all federal, state and local government web resources and services.